EW3957 Weather Reports


time (UTC)temp
F
wind
direction
speed
knots
gust
knots
rain 1hr
in
rain 24hr
in
rain mn
in
humidity
%
barometer
mb
20260506204526 75 196 0.0 5.2 0.00 0.00 0.00 46 1010.3
20260506203055 75 207 0.0 0.9 0.00 0.00 0.00 49 1010.5
20260506201524 73 221 0.9 6.1 0.00 0.00 0.00 45 1010.6
20260506200051 74 344 0.0 4.3 0.00 0.00 0.00 48 1010.8
20260506194505 73 64 1.7 6.1 0.00 0.00 0.00 46 1011.1
20260506193034 72 87 0.0 3.5 0.00 0.00 0.00 45 1011.3
20260506191603 72 221 0.9 4.3 0.00 0.00 0.00 46 1011.7
20260506190018 69 263 0.9 3.5 0.00 0.00 0.00 47 1011.9
20260506184546 69 225 0.9 6.1 0.00 0.00 0.00 46 1012.2
20260506183013 68 202 0.9 5.2 0.00 0.00 0.00 46 1012.3
20260506181542 68 59 0.0 5.2 0.00 0.00 0.00 45 1012.3
20260506180110 68 240 1.7 3.5 0.00 0.00 0.00 45 1012.5
20260506174526 66 51 0.0 4.3 0.00 0.00 0.00 46 1012.6
20260506173108 64 52 0.0 3.5 0.00 0.00 0.00 48 1012.8
20260506171522 62 182 0.0 0.9 0.00 0.00 0.00 49 1013.1
20260506170058 62 55 0.0 0.0 0.00 0.00 0.00 47 1013.2
20260506164506 61 19 0.0 0.9 0.00 0.00 0.00 50 1013.4
20260506163033 62 13 0.0 3.5 0.00 0.00 0.00 48 1013.6
20260506161558 60 355 0.0 2.6 0.00 0.00 0.00 51 1013.5
20260506160015 59 18 0.0 5.2 0.00 0.00 0.00 53 1013.6
20260506154542 57 44 0.0 2.6 0.00 0.00 0.00 55 1013.6
20260506153003 56 17 0.0 2.6 0.00 0.00 0.00 58 1013.5
20260506151531 53 55 0.0 2.6 0.00 0.00 0.00 64 1013.8
20260506150059 50 10 0.0 3.5 0.00 0.00 0.00 76 1013.7
20260506144515 46 33 0.0 1.7 0.00 0.00 0.00 92 1013.6
20260506143044 43 155 0.0 0.0 0.00 0.00 0.00 94 1013.6
20260506141510 40 160 0.0 0.0 0.00 0.00 0.00 93 1013.8
20260506140041 38 155 0.0 0.0 0.00 0.00 0.00 92 1013.8
20260506134557 37 157 0.0 0.0 0.00 0.00 0.00 92 1013.7
20260506133024 36 155 0.0 0.0 0.00 0.00 0.00 92 1013.6
20260506131555 36 152 0.0 0.0 0.00 0.00 0.00 91 1013.5
20260506130006 36 148 0.0 0.0 0.00 0.00 0.00 90 1013.4
20260506124538 36 142 0.0 0.0 0.00 0.00 0.00 90 1013.3
20260506123059 36 142 0.0 0.0 0.00 0.00 0.00 90 1013.1
20260506121525 36 143 0.0 0.0 0.00 0.00 0.00 90 1013.0
20260506120118 37 143 0.0 0.0 0.00 0.00 0.00 89 1012.9
20260506114511 37 143 0.0 0.0 0.00 0.00 0.00 89 1012.9
20260506113037 38 143 0.0 0.0 0.00 0.00 0.00 88 1012.9
20260506111504 39 143 0.0 0.0 0.00 0.00 0.00 87 1013.0
20260506110013 39 143 0.0 0.0 0.00 0.00 0.00 87 1012.9
20260506104542 40 143 0.0 0.0 0.00 0.00 0.00 86 1012.8
20260506103022 41 143 0.0 0.0 0.00 0.00 0.00 84 1012.7
20260506101539 42 143 0.0 0.0 0.00 0.00 0.00 83 1012.7
20260506100108 43 143 0.0 0.0 0.00 0.00 0.00 81 1012.7
20260506094532 44 143 0.0 0.0 0.00 0.00 0.00 79 1012.7
20260506093054 45 142 0.0 0.0 0.00 0.00 0.00 76 1012.6
20260506091523 45 143 0.0 0.0 0.00 0.00 0.00 76 1012.6
20260506090047 45 143 0.0 0.0 0.00 0.00 0.00 76 1012.5
20260506084503 44 143 0.0 0.0 0.00 0.00 0.00 81 1012.4
20260506083034 43 143 0.0 0.0 0.00 0.00 0.00 86 1012.4
20260506081605 42 143 0.0 0.0 0.00 0.00 0.00 87 1012.3
20260506073009 41 142 0.0 0.0 0.00 0.00 0.00 86 1011.9
20260506071548 42 142 0.0 0.0 0.00 0.00 0.00 85 1011.9
20260506070118 42 142 0.0 0.0 0.00 0.00 0.00 85 1011.7
20260506061529 44 142 0.0 0.0 0.00 0.00 0.00 84 1011.3
20260506050128 47 143 0.0 0.0 0.00 0.00 0.00 79 1010.4
20260506044535 48 142 0.0 0.0 0.00 0.00 0.00 79 1010.3
20260506043055 49 142 0.0 0.0 0.00 0.00 0.00 77 1010.2
20260506041524 51 142 0.0 0.0 0.00 0.00 0.00 76 1010.0
20260506040051 52 142 0.0 0.0 0.00 0.00 0.00 73 1009.9
20260506034507 53 142 0.0 0.0 0.00 0.00 0.00 70 1009.9
20260506033035 55 142 0.0 0.0 0.00 0.00 0.00 68 1009.6
20260506031503 57 142 0.0 0.0 0.00 0.00 0.00 65 1009.6
20260506030021 59 142 0.0 0.0 0.00 0.00 0.00 62 1009.3
20260506024547 60 138 0.0 0.0 0.00 0.00 0.00 62 1009.2
20260506023013 64 118 0.0 0.0 0.00 0.00 0.00 50 1009.1
20260506021542 68 106 0.0 0.0 0.00 0.00 0.00 45 1009.1
20260506020110 71 99 0.0 0.0 0.00 0.00 0.00 39 1009.0
20260506014527 72 92 0.0 0.0 0.00 0.00 0.00 33 1008.9
20260506013054 74 67 0.0 0.0 0.00 0.00 0.00 33 1009.0
20260506011525 73 55 0.0 0.0 0.00 0.00 0.00 34 1008.9
20260506010054 73 180 0.0 2.6 0.00 0.00 0.00 32 1009.0
20260506004505 74 103 0.0 7.0 0.00 0.00 0.00 34 1009.1
20260506003034 73 67 0.0 5.2 0.00 0.00 0.00 35 1009.2
20260506001501 74 62 0.0 0.0 0.00 0.00 0.00 29 1009.3
20260506000018 74 340 0.0 0.9 0.00 0.00 0.00 32 1009.5
20260505234609 74 355 0.0 0.9 0.00 0.00 0.00 30 1009.8
20260505233016 73 219 0.0 2.6 0.00 0.00 0.00 32 1009.8
20260505231542 73 339 0.0 0.9 0.00 0.00 0.00 32 1010.0
20260505230111 72 189 0.0 5.2 0.00 0.00 0.00 33 1010.1
20260505224531 73 15 0.0 4.3 0.00 0.00 0.00 35 1010.3
20260505223103 74 5 0.9 4.3 0.00 0.00 0.00 33 1010.5
20260505221521 72 281 0.0 3.5 0.00 0.00 0.00 32 1010.6
20260505220115 73 214 0.9 7.0 0.00 0.00 0.00 34 1010.8
20260505214507 73 51 0.9 3.5 0.00 0.00 0.00 32 1010.9
20260505213034 71 295 0.9 4.3 0.00 0.00 0.00 35 1011.1
20260505211615 72 211 0.0 5.2 0.00 0.00 0.00 35 1011.3
20260505210020 72 263 0.0 2.6 0.00 0.00 0.00 39 1011.3